GFSGBSN_250_rhum_072.txt.gz
RH
66 65 85 76 81 99 96 86 100 100 100 100 100 100 100 100 100 95 67 79 92 79 87 73 57 49 46 42 38 46 76 87 100 100 88 100 100 100 100 100 79 77 84 73 63 51 44
51 75 71 70 73 85 95 100 100 100 100 100 100 100 100 100 100 96 65 64 96 88 75 59 51 47 39 40 34 45 65 89 100 100 100 93 93 94 77 100 88 64 57 51 47 63 64
75 95 89 80 100 93 79 97 100 100 100 100 100 100 100 100 100 96 64 59 85 98 85 46 45 47 38 35 32 34 80 97 100 100 100 100 100 100 94 100 100 98 58 44 66 71 95
65 94 98 100 100 100 81 71 94 98 72 82 84 94 91 74 72 71 66 96 95 83 48 42 36 39 37 43 55 73 100 82 100 100 100 100 100 100 76 93 100 68 49 57 72 100 100
71 74 71 72 86 76 59 92 93 92 86 70 67 67 75 83 68 70 87 68 57 44 40 38 35 36 44 54 95 100 100 100 100 100 100 100 100 100 98 100 100 100 87 78 100 100 83
61 78 86 87 77 80 70 76 87 79 75 90 98 99 85 84 71 73 79 56 50 48 37 25 31 36 62 100 100 100 100 100 100 100 100 100 100 100 100 99 100 100 85 98 100 100 59
74 79 86 83 87 90 88 92 100 99 99 93 100 91 70 92 96 97 71 48 42 46 26 25 25 35 79 100 100 100 100 100 100 100 100 100 100 100 92 100 84 75 81 100 100 84 40
99 100 100 100 100 100 100 100 86 100 100 100 100 96 81 73 87 68 60 48 40 42 31 25 22 36 65 98 100 100 100 100 100 100 100 100 82 87 100 100 83 100 87 98 82 49 36
100 100 100 100 100 100 98 89 100 100 100 100 100 96 81 84 74 66 60 52 30 28 26 32 21 36 59 96 100 100 100 100 100 100 100 100 83 85 100 100 96 81 86 90 61 48 54
100 100 100 100 100 100 100 100 100 100 100 100 99 98 81 66 54 59 55 58 37 28 20 34 49 29 72 90 99 100 100 100 98 100 69 71 95 100 100 100 100 98 77 75 79 57 43
100 100 100 100 100 100 100 100 100 100 100 100 100 97 59 52 82 75 58 37 36 25 20 35 54 61 56 80 100 100 100 100 96 100 100 100 100 100 100 100 100 100 92 89 64 45 37
100 100 100 100 100 100 100 100 100 100 100 100 97 68 51 64 51 51 28 27 27 24 21 28 38 46 66 72 73 99 100 100 100 100 100 100 100 100 100 100 100 91 80 60 42 47 37
100 100 100 100 100 100 100 100 100 100 100 84 65 59 32 32 27 24 25 21 19 20 22 25 29 31 39 51 66 68 94 100 100 100 100 100 100 93 99 92 88 77 69 56 45 50 48
100 100 100 100 100 100 100 100 100 100 84 67 87 58 26 25 23 22 20 19 20 20 22 23 25 26 30 32 52 70 64 81 100 100 100 93 96 96 90 74 70 68 55 56 55 54 53
100 100 100 100 100 100 100 100 92 73 83 70 55 29 24 22 22 20 18 18 20 22 20 17 14 11 15 26 33 47 80 82 78 93 99 93 94 87 80 70 60 63 64 69 62 48 60
100 100 100 100 100 100 100 100 88 64 65 37 26 27 22 23 21 20 18 16 14 11 12 11 11 10 11 13 20 33 66 88 95 100 100 95 98 89 83 74 65 67 81 66 56 51 67
100 100 100 98 100 100 98 89 40 47 28 24 25 23 20 22 21 18 13 12 11 11 11 12 13 12 12 13 14 18 32 54 78 86 99 100 98 86 96 84 80 82 57 50 61 59 72
100 91 84 89 93 72 40 35 27 27 23 22 21 19 20 20 15 12 11 13 14 14 11 12 14 13 15 14 14 15 18 30 45 65 84 97 100 88 99 81 88 96 48 80 74 87 78
41 81 98 83 57 33 28 28 23 24 24 22 21 19 16 11 11 12 16 15 12 11 9 8 8 10 11 12 16 15 17 20 28 36 44 58 70 97 93 72 75 70 74 98 91 100 75
100 98 68 39 27 26 23 26 27 26 22 22 20 13 10 12 15 14 11 9 8 8 7 6 6 7 8 11 12 13 18 21 19 21 24 45 49 78 82 60 62 81 91 99 100 96 72
62 30 27 30 28 27 27 27 25 22 20 17 13 12 13 14 12 10 7 6 6 5 5 5 5 5 6 8 10 13 13 18 23 18 19 26 42 52 45 50 61 93 95 100 100 79 66
29 32 31 29 30 30 30 24 22 20 15 14 16 16 13 12 10 8 7 5 4 4 4 4 4 4 5 7 8 10 12 14 20 22 20 19 21 35 39 36 61 97 99 94 100 93 64
34 35 34 30 29 26 22 21 18 15 16 18 16 15 12 8 8 6 5 4 4 4 4 4 4 4 4 6 7 9 10 11 13 20 21 20 19 27 38 35 61 100 90 89 96 100 61
32 30 30 27 24 23 19 18 18 19 18 16 15 12 9 9 6 4 4 4 4 3 4 4 4 4 4 5 6 8 9 11 14 18 20 22 21 24 39 35 59 84 79 89 98 100 89
26 27 25 25 23 20 20 20 22 20 19 15 13 11 9 5 5 5 5 5 4 3 4 5 4 4 4 5 6 8 10 10 12 16 18 18 20 24 31 36 62 66 89 87 94 100 100
25 25 23 22 23 21 22 23 22 19 16 14 13 10 6 5 6 6 5 5 4 4 4 5 5 5 5 6 6 8 9 12 13 16 18 19 21 20 31 37 53 52 83 91 90 100 100
20 22 22 23 24 23 23 21 19 17 15 14 11 8 7 6 6 6 6 6 5 5 5 4 5 5 6 5 5 6 7 10 13 15 17 19 22 24 27 34 55 51 82 87 92 84 100
24 24 24 24 23 22 20 18 17 16 16 13 9 9 7 6 6 6 6 5 5 5 6 5 5 5 5 6 7 9 10 11 12 14 16 19 24 28 31 38 57 46 60 81 86 91 75
22 22 21 20 19 19 17 17 16 16 15 10 9 10 7 6 5 6 5 5 6 5 5 5 4 6 6 6 8 9 10 12 11 13 16 19 26 28 32 41 46 42 51 75 78 95 66

GFSGBSN_250_rhum_078.txt.gz
RH
69 78 84 95 96 80 76 78 100 100 75 50 44 57 57 50 45 37 38 38 54 93 70 95 100 87 98 100 100 97 80 68 59 71 86 98 90 67 57 47 51 48 61 63 57 70 97
90 90 99 100 100 99 82 96 82 73 58 51 44 43 47 50 60 56 61 57 76 93 90 92 100 90 75 93 82 67 66 97 88 80 76 74 59 53 46 43 45 47 54 60 91 100 100
95 85 81 97 82 87 87 59 85 68 43 40 39 46 69 75 79 75 73 84 81 52 75 65 100 82 87 83 81 91 99 94 89 84 94 51 41 35 35 37 36 45 56 58 94 100 100
100 100 100 93 100 100 96 78 67 60 54 40 80 80 78 92 95 94 90 84 97 95 72 54 72 88 76 78 97 94 100 81 45 45 46 38 30 29 35 35 34 48 67 78 93 100 100
83 100 100 99 97 96 89 90 83 75 64 80 100 86 70 97 100 100 100 100 83 76 63 93 88 85 95 100 100 96 70 42 33 36 38 32 27 36 33 32 35 53 65 77 77 100 100
96 100 100 99 93 84 91 66 72 98 91 88 100 94 88 100 100 100 89 91 85 69 70 82 93 100 90 94 92 70 47 27 27 30 29 26 30 30 33 34 42 56 84 87 100 100 100
100 100 100 100 100 99 71 67 69 85 87 98 92 86 100 93 94 85 66 69 61 80 86 100 92 82 85 77 59 42 27 20 22 24 25 28 27 45 73 81 75 81 100 100 100 100 100
100 100 100 100 100 100 100 94 86 77 93 95 99 98 100 100 100 93 86 82 72 86 100 90 83 75 79 65 36 25 19 22 27 30 26 31 58 82 100 100 96 100 100 100 100 100 100
100 100 100 100 100 100 100 100 100 100 100 100 100 100 100 100 100 98 87 89 100 100 100 96 70 58 55 37 24 18 15 21 30 32 25 30 79 100 100 100 100 98 100 100 100 100 100
100 100 100 100 100 100 100 100 100 100 100 100 100 100 100 97 94 96 100 100 100 100 89 91 73 63 44 31 20 20 17 16 23 30 32 56 73 100 100 100 100 100 100 100 100 100 100
100 100 100 100 100 100 100 100 100 100 100 90 97 100 100 100 100 92 100 100 85 88 60 68 56 43 28 23 21 21 24 22 19 32 48 63 91 98 100 100 100 100 100 100 100 100 100
100 100 100 100 100 100 100 100 100 100 100 100 100 100 100 100 100 98 100 94 83 74 74 66 50 34 22 18 22 23 25 23 21 25 60 79 90 100 100 100 100 100 100 100 100 100 100
100 100 100 100 100 100 100 100 100 100 100 100 100 99 96 100 100 92 94 85 70 80 73 54 33 36 23 22 23 25 23 20 22 23 41 89 92 100 100 100 100 100 100 100 100 100 100
94 100 100 100 100 100 100 100 100 100 100 100 100 92 89 97 100 99 94 78 61 58 41 27 31 20 21 26 24 22 22 23 21 24 28 58 97 98 100 100 100 100 100 100 100 100 100
53 74 100 100 100 100 100 100 100 100 100 100 100 97 89 90 95 67 65 54 45 29 23 28 25 20 22 22 22 22 22 23 26 23 26 34 59 95 98 100 100 100 100 100 100 100 100
34 63 64 66 86 95 95 100 100 100 96 100 100 93 90 91 64 46 38 30 26 23 24 29 22 21 20 20 18 17 18 18 20 27 26 31 38 66 95 99 100 100 100 100 91 100 100
26 34 50 59 62 61 60 59 66 92 96 95 91 51 59 70 53 31 26 23 22 28 26 22 21 18 16 14 10 10 11 12 13 17 24 29 34 39 74 91 90 100 100 100 100 100 97
34 44 46 48 57 58 55 52 51 50 51 46 40 40 46 39 34 30 26 24 30 22 22 21 17 13 9 10 12 13 14 12 18 13 16 19 28 35 48 74 93 97 100 97 95 100 97
34 41 49 49 52 50 53 53 49 47 45 38 38 35 32 34 30 28 27 25 23 22 20 16 11 10 11 12 12 14 14 14 18 16 12 13 16 31 40 47 82 100 100 96 100 97 85
38 34 40 53 45 52 48 45 50 45 40 37 29 30 32 31 24 25 23 24 23 20 14 11 11 10 10 9 8 10 10 11 15 17 15 12 14 20 28 35 45 71 94 100 100 100 92
35 35 40 38 41 42 45 43 40 37 32 29 30 33 31 25 26 31 30 22 20 13 11 12 10 7 6 6 6 6 7 8 12 16 15 15 14 16 20 27 35 51 70 84 94 98 92
33 34 32 33 40 53 53 56 36 32 28 27 34 29 34 30 31 31 23 20 14 13 12 10 8 7 6 5 4 4 5 6 8 12 12 15 17 16 18 21 16 28 48 86 90 87 84
32 31 32 37 37 38 35 33 33 37 35 34 32 40 32 31 27 23 22 14 14 12 10 10 7 5 4 4 4 4 4 5 7 10 12 14 16 17 16 15 10 21 29 55 92 91 76
45 42 37 37 35 36 37 41 41 46 42 37 37 32 29 24 23 18 16 17 14 10 10 7 6 5 4 4 4 4 4 5 6 9 11 9 10 14 15 14 14 17 21 37 74 81 80
43 43 44 46 49 45 46 48 47 46 40 35 30 28 25 20 17 17 18 14 12 12 7 6 7 6 5 4 4 4 4 5 6 7 10 8 8 11 11 18 19 16 16 23 40 53 60
35 36 37 38 36 38 37 35 37 37 32 30 25 22 20 20 20 20 15 12 13 10 7 6 6 5 5 4 4 4 4 5 6 6 7 7 8 12 14 24 25 23 19 20 30 43 55
35 34 34 34 33 33 33 36 37 31 26 24 22 22 22 22 22 16 13 13 13 8 7 6 6 6 6 6 4 5 5 6 6 5 6 6 10 12 18 24 27 25 20 19 28 42 62
25 28 29 31 30 30 32 32 30 27 25 24 24 24 23 20 15 13 12 14 10 7 6 6 6 6 6 6 5 5 5 5 6 6 6 9 14 17 23 23 27 26 22 22 28 39 55
25 25 26 26 26 28 28 28 29 27 26 26 28 22 17 15 13 12 12 13 10 6 6 6 6 6 6 6 5 6 6 6 6 6 8 12 15 19 19 23 26 25 21 22 28 42 54

GFSGBSN_250_rhum_081.txt.gz
RH
63 72 78 66 60 66 67 53 65 72 60 92 90 70 98 100 100 82 58 55 54 44 54 62 76 60 66 60 100 89 100 100 90 99 100 94 75 74 78 100 85 68 62 90 99 100 87
56 61 70 74 72 79 98 95 100 100 91 100 100 88 81 99 93 81 74 53 47 46 69 59 71 93 100 98 70 100 84 81 73 73 76 70 72 73 81 78 69 73 52 53 54 58 93
62 67 66 80 100 90 92 99 100 99 100 99 100 94 95 68 80 74 79 51 45 65 88 75 63 93 100 99 92 81 85 79 61 77 70 93 95 93 59 41 34 37 29 30 35 42 56
80 69 67 66 77 91 98 100 100 100 100 100 100 100 96 93 82 80 92 76 64 79 100 86 73 75 82 100 100 98 90 59 65 82 84 96 76 51 33 26 19 20 21 26 36 35 41
66 68 88 79 87 92 94 97 99 92 100 67 100 100 93 100 100 95 100 100 82 96 100 100 94 58 75 83 88 71 67 77 81 97 90 72 47 34 24 17 15 24 22 23 30 33 41
63 80 100 100 100 100 97 98 81 98 62 56 53 64 95 53 94 56 75 100 100 98 100 98 60 70 85 78 59 83 80 81 84 79 75 51 37 27 20 15 17 21 21 25 33 37 47
83 79 100 100 100 100 100 100 100 99 96 89 79 61 46 50 43 67 72 81 100 94 55 50 75 97 94 74 71 96 94 81 65 80 57 37 27 21 17 16 17 20 22 24 31 32 35
80 98 87 99 100 100 100 100 100 100 100 95 100 86 80 84 100 95 90 93 68 46 65 100 99 96 87 83 77 86 72 70 70 58 32 27 21 19 20 20 21 22 22 37 41 33 50
100 100 100 99 100 100 100 100 100 100 100 100 100 100 100 100 100 100 100 94 94 100 99 100 100 98 100 99 84 70 73 64 52 32 22 20 23 24 22 26 24 25 39 70 83 71 70
100 100 100 100 100 100 100 100 100 96 82 100 100 100 100 100 100 100 100 100 100 96 100 94 100 100 98 86 66 61 53 45 28 28 18 17 24 26 22 28 32 60 64 93 100 100 93
100 100 100 100 100 100 82 100 100 100 93 100 100 100 100 100 100 100 100 100 99 100 100 95 96 90 80 72 58 47 37 25 26 24 18 16 21 26 24 24 44 100 91 100 100 100 98
71 93 98 100 99 84 83 79 72 90 100 100 100 100 100 100 100 100 100 100 100 100 90 98 84 92 73 58 33 32 30 27 22 17 19 18 19 24 29 36 57 92 100 100 100 100 100
26 35 43 48 51 39 46 51 46 93 100 100 100 100 100 100 100 100 100 100 100 98 100 86 68 59 46 36 26 25 24 29 21 19 20 19 19 22 35 52 69 91 100 100 100 100 100
16 21 26 26 30 46 54 36 39 82 100 100 100 100 100 100 100 100 100 100 100 100 98 70 50 42 41 22 26 23 30 21 20 22 22 19 18 20 36 65 73 100 100 100 100 100 100
18 18 23 43 35 42 45 32 56 100 100 100 100 100 100 100 100 100 100 100 100 96 74 67 45 36 30 24 26 27 22 23 22 19 24 20 20 21 29 60 73 100 100 100 100 96 100
19 26 26 28 50 59 55 35 47 89 100 100 100 100 100 100 100 100 97 92 86 61 48 42 34 28 26 23 20 23 23 19 20 20 19 22 21 20 27 46 72 89 100 100 100 100 100
21 29 25 29 57 80 62 46 52 92 98 94 85 91 90 90 92 84 70 64 55 45 35 31 28 26 22 19 16 20 21 18 17 17 16 18 17 22 27 31 51 80 100 100 99 100 100
31 38 40 36 59 56 60 63 69 73 79 68 71 71 75 81 74 63 61 57 48 35 31 29 26 21 20 19 17 17 16 15 10 13 13 12 12 16 20 28 36 73 86 100 100 100 100
24 30 39 52 72 53 62 68 60 53 57 61 72 71 66 60 58 55 50 44 34 30 24 22 21 22 21 18 14 12 10 11 10 15 13 11 11 12 13 22 31 52 90 95 98 100 100
28 36 38 44 59 63 55 55 51 54 62 64 59 53 46 49 51 46 42 36 30 24 21 23 24 22 17 13 9 10 10 10 10 12 11 14 15 13 13 18 26 36 58 98 93 100 100
24 32 44 46 54 62 54 64 58 58 53 53 49 49 48 54 51 47 38 30 23 22 25 26 20 15 12 9 9 8 7 6 6 8 12 13 16 15 14 14 23 36 47 86 86 91 100
32 30 35 46 43 46 57 65 57 52 62 66 59 51 43 56 50 38 30 31 29 27 23 18 15 11 12 10 8 6 5 6 6 7 8 11 13 12 16 16 16 24 26 47 80 100 100
37 35 39 42 42 49 50 51 52 48 48 55 54 54 44 40 40 36 34 38 31 22 18 15 12 13 11 8 7 5 4 4 4 5 7 10 13 13 15 16 17 19 24 37 65 96 99
40 46 48 45 44 44 46 44 46 48 49 41 35 34 32 41 41 40 38 28 21 19 14 15 15 10 8 7 5 5 4 4 4 4 6 9 12 14 17 17 18 17 17 20 41 60 94
42 42 46 45 51 51 50 49 51 46 46 47 43 42 40 36 35 31 27 23 19 16 18 16 12 9 7 7 6 5 5 4 5 5 6 7 11 15 16 14 18 17 14 15 24 52 74
41 47 48 44 46 47 52 51 47 44 45 43 40 37 32 35 30 25 20 18 18 20 16 12 10 9 7 7 6 6 5 5 5 6 6 6 8 10 8 11 13 17 16 19 25 38 67
43 43 47 47 45 45 45 42 41 38 38 36 36 35 31 26 24 20 18 21 21 17 14 11 9 9 8 6 6 6 5 6 6 7 6 6 6 7 7 12 17 20 18 22 21 25 44
38 40 44 41 42 43 45 42 40 39 38 32 28 27 23 23 22 22 23 22 17 14 11 10 8 10 8 6 6 6 6 6 7 6 7 7 6 6 9 18 22 23 22 26 24 21 29
29 30 35 36 35 34 35 34 32 31 30 27 26 23 25 27 26 23 20 16 15 13 11 8 8 8 7 6 6 6 6 6 7 7 7 7 7 7 11 19 25 26 29 29 30 25 24

GFSGBSN_250_rhum_084.txt.gz
RH
42 43 48 69 54 44 40 47 46 56 71 78 61 68 62 71 71 87 90 100 91 83 100 100 100 90 76 74 55 49 58 57 65 53 87 100 100 100 100 100 98 73 74 68 73 87 94
47 56 54 64 98 70 60 47 58 69 64 78 72 77 85 99 99 91 81 99 99 64 80 99 100 100 99 98 81 74 62 97 95 82 60 64 80 96 99 99 92 71 66 63 71 74 63
45 49 68 63 86 94 80 57 63 68 81 91 99 80 84 99 100 99 100 98 100 100 100 98 92 73 72 100 100 93 50 79 100 100 100 64 78 66 68 77 75 66 56 52 49 42 36
40 52 59 78 76 71 77 67 91 88 91 86 100 100 100 100 100 100 100 100 97 100 100 100 100 100 100 96 100 100 100 100 99 100 73 71 86 64 64 58 51 46 43 40 31 27 24
44 42 44 49 56 79 68 91 89 100 83 86 100 100 100 100 100 96 70 100 88 42 64 79 82 64 100 63 80 99 100 100 95 58 64 74 60 74 52 53 60 54 33 21 23 21 17
41 39 40 50 57 61 65 73 83 91 93 77 100 100 100 100 100 100 89 74 62 44 70 47 75 59 83 72 73 69 47 45 47 63 82 90 98 78 79 64 58 38 22 17 17 16 14
34 43 36 40 49 72 70 79 85 94 100 83 91 100 100 97 100 100 87 70 54 55 47 92 50 55 62 55 52 43 38 56 82 90 86 96 77 83 85 60 38 29 20 15 16 14 13
31 30 32 47 42 65 68 56 73 97 99 100 100 100 100 100 97 98 88 79 79 90 95 87 91 79 86 80 53 72 94 88 76 88 87 84 99 72 38 38 26 20 17 15 15 15 13
25 29 34 46 48 55 61 79 92 77 93 100 100 100 100 100 100 100 99 100 100 100 97 92 100 100 98 98 100 100 95 92 93 97 86 80 57 31 28 28 20 17 15 15 16 18 18
43 27 29 41 62 71 60 88 100 100 100 100 100 100 100 100 100 100 100 100 100 100 100 100 98 100 100 100 100 100 92 95 98 76 76 50 36 24 19 19 17 15 16 17 20 20 24
29 34 31 41 50 59 61 94 100 100 100 100 100 100 100 100 100 100 100 100 100 100 100 79 100 99 100 97 84 91 96 81 72 79 61 30 27 22 20 16 15 16 17 21 24 22 27
11 20 31 44 43 51 54 65 98 100 100 100 100 100 100 100 100 100 100 100 100 100 100 93 96 100 100 100 95 78 92 93 82 66 34 30 23 20 20 18 18 20 21 24 28 37 56
7 9 17 22 29 55 38 44 53 66 100 87 87 100 100 100 100 100 100 100 100 100 100 100 87 98 100 100 97 95 72 86 75 47 28 23 22 22 18 17 19 22 24 25 30 64 87
10 11 11 13 13 44 80 40 30 43 60 64 63 58 94 83 98 100 100 100 100 100 100 100 100 96 94 98 90 82 83 61 45 31 26 22 23 18 13 25 20 21 24 33 46 86 100
12 13 14 14 17 45 36 61 56 66 50 48 44 44 53 58 80 100 100 81 89 80 98 100 100 100 94 87 83 73 52 42 35 29 22 18 18 19 16 23 19 21 27 40 68 88 96
12 14 16 17 21 28 51 52 83 100 100 90 75 60 62 59 77 92 90 95 84 92 90 99 100 100 95 85 62 54 49 36 28 22 19 18 16 20 17 19 21 21 28 61 97 100 100
14 15 18 19 23 35 43 39 35 55 59 77 100 100 99 100 85 94 94 100 94 99 96 96 90 81 71 69 60 40 31 31 20 18 16 22 18 23 15 20 23 21 30 54 89 98 100
16 16 17 22 24 32 45 47 60 75 95 92 100 100 99 100 100 99 100 100 96 100 96 88 75 64 60 49 33 30 30 23 17 15 18 19 19 16 15 16 20 19 28 46 70 100 100
22 20 21 27 39 38 56 78 66 75 98 100 100 100 100 95 100 99 83 85 92 89 75 57 51 41 35 31 29 26 21 15 19 19 12 14 13 12 12 12 17 16 30 40 64 100 100
28 27 27 29 44 54 69 80 82 99 100 99 100 92 100 97 98 78 65 60 56 46 51 53 40 40 42 41 25 17 17 19 16 13 9 10 12 12 12 15 14 15 26 32 40 83 100
32 32 37 32 35 50 63 70 75 91 89 92 99 87 91 89 79 67 61 61 60 54 49 48 48 42 34 25 17 20 18 13 10 9 9 8 9 10 12 12 14 14 17 26 48 81 99
36 37 36 39 43 49 61 65 65 81 80 95 96 95 76 64 63 67 64 62 55 57 46 43 40 32 25 23 20 15 12 8 8 6 6 5 6 6 10 12 13 14 19 30 31 94 84
39 42 42 49 48 44 42 50 64 69 82 94 74 88 79 62 62 72 73 50 42 40 38 38 36 29 23 18 14 11 10 7 6 5 5 5 6 8 11 9 11 17 24 24 40 73 36
36 43 50 51 48 48 57 57 61 64 57 60 70 69 65 75 73 66 41 39 44 46 46 33 27 22 17 12 12 11 7 6 5 5 5 5 5 7 9 10 13 24 21 22 29 28 37
35 41 46 55 54 59 57 56 58 57 50 56 56 63 65 64 52 47 53 53 50 39 32 25 21 15 11 11 10 8 7 5 5 5 5 5 5 6 9 14 22 20 21 24 20 18 40
37 38 46 49 54 53 56 59 56 57 58 56 57 58 51 54 54 51 44 38 31 27 23 21 16 14 14 10 8 7 6 6 6 6 5 6 7 7 10 17 25 13 20 26 22 23 38
45 47 46 42 42 42 44 47 48 52 53 56 57 54 48 43 35 35 34 30 27 24 20 17 16 14 11 9 8 7 7 6 6 6 7 6 8 9 11 14 18 10 15 22 19 24 26
45 48 51 49 48 45 43 45 46 48 45 46 46 45 39 36 33 28 26 25 22 22 21 19 14 10 9 9 7 7 7 7 7 7 8 8 9 9 9 9 9 6 11 17 18 22 25
41 44 52 50 48 49 52 52 51 51 49 47 45 43 41 35 26 24 23 23 25 24 21 16 10 10 8 9 8 7 8 7 8 7 7 8 8 9 9 7 8 10 14 19 19 23 28